Location: Castro Valley
(37.6940°N, 122.0850°W)
Time: 19:10:20
(UTC-07:00)

Amateur Radio Satellites - All Passes

Search period start: 04 May 2015 18:40
Search period end: 05 May 2015 18:40
Location: Castro Valley, 37.6940°N, 122.0850°W

Satellite Date Start Highest point End Downlink Frequencies (MHz)
Time Altitude Azimuth
PHONESAT 2.4 04 May 18:47:42 18:51:11 51° 204° (SSW) 18:54:40 2401.200-2431.200
HO-68 04 May 18:58:03 18:58:51 10° 53° (NE) 19:00:11 435.675
STRAND 1 04 May 19:14:21 19:18:11 22° 93° (E) 19:22:10 437.568
PRISM 04 May 19:17:21 19:20:46 26° 96° (E) 19:24:13 437.425
M-CUBED/EXP-1 PRIME 04 May 19:18:40 19:21:48 25° 99° (E) 19:24:48 437.505
Cosmos 2499 04 May 19:24:46 19:32:40 35° 288° (WNW) 19:40:04 435.465 / 435.565
RS-15 04 May 19:27:14 19:34:39 19° 20° (NNE) 19:42:34 29.354- 29.394
BRITE-PL 04 May 19:31:15 19:33:47 16° 66° (ENE) 19:36:36 437.365/2234.400
O/OREOS (USA 219) 04 May 19:35:14 19:36:49 12° 100° (E) 19:38:40 437.305
AUBIESAT-1 04 May 19:50:50 19:54:33 59° 105° (ESE) 19:57:59 437.475
CUTE-I 04 May 19:51:11 19:55:11 21° 267° (W) 19:59:02 437.470
DOVE 4 04 May 19:52:37 19:54:04 12° 63° (ENE) 19:55:48 437.250
CUBESAT XI-V 04 May 19:54:21 19:58:55 60° 285° (WNW) 20:03:28 437.345
YUBILEINY 04 May 19:55:33 20:00:40 17° 62° (ENE) 20:06:16 435.215
GOMX 1 04 May 20:03:25 20:06:48 23° 68° (ENE) 20:10:29 467.674
Cubesat XI-IV 04 May 20:04:59 20:08:11 15° 270° (W) 20:11:06 437.490
SO-50 04 May 20:17:14 20:19:41 13° 251° (WSW) 20:21:51 436.795
AAUSAT CUBESAT 2 04 May 20:24:00 20:26:13 15° 68° (ENE) 20:28:37 437.432
PHONESAT 2.4 04 May 20:28:00 20:28:56 11° 217° (SW) 20:29:43 2401.200-2431.200
SEEDS 04 May 20:30:36 20:34:04 25° 71° (ENE) 20:37:36 437.485
HO-68 04 May 20:38:19 20:45:20 61° 70° (ENE) 20:52:25 435.675
STRAND 1 04 May 20:52:48 20:57:34 40° 289° (WNW) 21:02:17 437.568
PRISM 04 May 20:52:54 20:56:08 22° 290° (WNW) 20:59:16 437.425
M-CUBED/EXP-1 PRIME 04 May 20:53:49 20:56:33 19° 297° (WNW) 20:59:04 437.505
CANX-2 04 May 20:55:42 20:59:58 67° 76° (ENE) 21:04:16 2200.000
CINEMA 3 04 May 20:55:49 20:59:38 28° 70° (ENE) 21:03:41 145.822/145.860
CUTE 1.7 + AOD 2 04 May 21:03:12 21:07:29 74° 77° (ENE) 21:11:48 437.475
BRITE-PL 04 May 21:07:56 21:11:58 41° 263° (W) 21:16:15 437.365/2234.400
FUNcube-1 04 May 21:10:43 21:12:40 13° 65° (ENE) 21:14:50 145.935
O/OREOS (USA 219) 04 May 21:11:18 21:15:48 57° 293° (WNW) 21:20:18 437.305
Oscar 11 04 May 21:13:50 21:17:21 25° 70° (ENE) 21:20:58 145.826/435.025
CUBEBUG 2 04 May 21:22:36 21:26:25 28° 70° (ENE) 21:30:24 437.445
COMPASS 1 04 May 21:23:24 21:27:39 84° 78° (ENE) 21:31:54 437.405
DOVE 4 04 May 21:26:51 21:31:13 66° 260° (W) 21:35:55 437.250
UWE-3 04 May 21:27:03 21:30:40 25° 70° (ENE) 21:34:30 435.000/436.395/437.385
JUGNU 04 May 21:38:26 21:40:15 11° 172° (S) 21:42:08 437.505
ZACube-1 04 May 21:38:30 21:42:10 26° 70° (ENE) 21:46:00 437.345
RS-15 04 May 21:39:38 21:50:47 52° 49° (NE) 22:02:30 29.354- 29.394
GOMX 1 04 May 21:40:59 21:44:49 29° 266° (W) 21:48:50 467.674
Cosmos 2491 04 May 21:41:18 21:49:22 46° 89° (E) 21:57:37 435.465 / 435.565
HUMSAT D 04 May 21:47:07 21:49:28 15° 67° (ENE) 21:52:01 437.325/437.525
YUBILEINY 04 May 21:50:09 21:58:55 89° 270° (W) 22:07:38 435.215
AAUSAT CUBESAT 2 04 May 21:57:28 22:01:31 44° 262° (W) 22:05:33 437.432
DELFI C3 04 May 22:00:35 22:04:36 63° 76° (ENE) 22:08:38 145.870
50 SAT 04 May 22:03:25 22:05:03 12° 67° (ENE) 22:06:54 437.505
DX 1 04 May 22:04:53 22:08:36 29° 71° (ENE) 22:12:25 434.975-435.025
SEEDS 04 May 22:06:14 22:09:48 25° 265° (W) 22:13:18 437.485
VELOX 1 04 May 22:17:42 22:20:45 19° 68° (ENE) 22:23:55 145.980
ESTCUBE 1 04 May 22:20:28 22:21:44 11° 65° (ENE) 22:23:15 437.505/2401.250
HO-68 04 May 22:27:56 22:33:35 23° 268° (W) 22:38:59 435.675
UKube-1 04 May 22:32:30 22:36:43 57° 74° (ENE) 22:40:59 .
CINEMA 3 04 May 22:33:00 22:36:49 26° 267° (W) 22:40:42 145.822/145.860
UNISAT 6 04 May 22:34:56 22:36:52 13° 89° (E) 22:39:03 437.425
AISAT 04 May 22:38:46 22:42:41 33° 71° (ENE) 22:46:40 437.250
FUNcube-1 04 May 22:44:09 22:48:30 58° 260° (W) 22:52:59 145.935
Oscar 11 04 May 22:49:47 22:53:28 26° 265° (W) 22:57:05 145.826/435.025
AIST 1 04 May 22:57:49 23:00:05 15° 88° (E) 23:02:32
CUBEBUG 2 04 May 22:59:17 23:03:04 25° 266° (W) 23:06:53 437.445
UWE-3 04 May 23:03:14 23:07:07 28° 265° (W) 23:11:03 435.000/436.395/437.385
ZACube-1 04 May 23:14:43 23:18:29 26° 266° (W) 23:22:16 437.345
ANTELSAT 04 May 23:15:34 23:19:50 37° 97° (E) 23:24:03 437.575/2403.000
HUMSAT D 04 May 23:20:47 23:24:53 44° 262° (W) 23:29:02 437.325/437.525
QB50P2 04 May 23:22:28 23:25:34 20° 93° (E) 23:28:46 145.880/145.840
JUGNU 04 May 23:25:41 23:28:27 13° 182° (S) 23:31:12 437.505
CUBEBUG 1 04 May 23:27:33 23:31:44 53° 74° (ENE) 23:35:59 437.445
NANOSAT C BR1 04 May 23:32:45 23:36:16 25° 95° (E) 23:39:51 145.865
50 SAT 04 May 23:35:35 23:39:28 47° 261° (W) 23:43:24 437.505
Cosmos 2504 04 May 23:36:56 23:44:08 42° 75° (ENE) 23:51:00 435.465 / 435.565
Cosmos 2491 04 May 23:38:28 23:46:26 36° 288° (WNW) 23:54:17 435.465 / 435.565
POPSAT HIP 1 04 May 23:40:38 23:44:27 31° 96° (E) 23:48:18 437.405
DX 1 04 May 23:41:32 23:44:54 21° 266° (W) 23:48:11 434.975-435.025
YUBILEINY 04 May 23:49:48 23:54:40 15° 280° (W) 23:58:56 435.215
RS-15 04 May 23:52:18 00:03:18 48° 249° (WSW) 00:14:29 29.354- 29.394
VELOX 1 04 May 23:53:02 23:57:05 35° 262° (W) 00:01:08 145.980
ESTCUBE 1 04 May 23:53:38 23:58:06 67° 259° (WSW) 00:02:35 437.505/2401.250
SRMSAT 04 May 23:55:27 23:57:59 13° 175° (S) 00:00:32 437.500
TIGRISAT 05 May 00:00:21 00:05:01 72° 283° (WNW) 00:09:31 435.000
BEESAT 3 05 May 00:00:38 00:04:19 34° 115° (ESE) 00:08:06 437.485
DUCHIFAT 1 05 May 00:02:49 00:07:02 55° 100° (E) 00:11:15 145.980
SPROUT 05 May 00:07:40 00:11:37 38° 73° (ENE) 00:15:37 437.525
UNISAT 6 05 May 00:09:33 00:14:07 55° 286° (WNW) 00:18:32 437.425
UKube-1 05 May 00:12:05 00:13:19 11° 271° (W) 00:14:15 .
POLYITAN 1 05 May 00:14:54 00:19:15 82° 102° (ESE) 00:23:34 437.675
BEESAT 2 05 May 00:15:33 00:19:24 42° 116° (ESE) 00:23:20 435.950
AISAT 05 May 00:16:07 00:19:23 20° 267° (W) 00:22:33 437.250
QB50P1 05 May 00:27:19 00:31:37 73° 284° (WNW) 00:35:53 145.935-145.965
TISAT 1 05 May 00:32:26 00:36:31 57° 75° (ENE) 00:40:41 437.305
AIST 1 05 May 00:33:27 00:37:27 38° 282° (WNW) 00:41:25
AIST 2 05 May 00:43:35 00:47:02 25° 113° (ESE) 00:50:36 435.215
BUGSAT 1 05 May 00:44:17 00:48:29 68° 284° (WNW) 00:52:42 437.445
ITUPSAT 1 05 May 00:48:47 00:51:14 14° 65° (ENE) 00:53:53 437.325
ANTELSAT 05 May 00:52:57 00:56:24 20° 292° (WNW) 00:59:38 437.575/2403.000
QB50P2 05 May 00:57:41 01:01:32 32° 288° (WNW) 01:05:20 145.880/145.840
CUBEBUG 1 05 May 01:06:51 01:08:31 12° 271° (W) 01:09:55 437.445
NANOSAT C BR1 05 May 01:08:29 01:12:03 25° 290° (WNW) 01:15:32 145.865
BEESAT 05 May 01:11:14 01:15:03 25° 69° (ENE) 01:18:57 436.000
SWISSCUBE 05 May 01:15:16 01:19:20 30° 70° (ENE) 01:23:30 437.505
POPSAT HIP 1 05 May 01:16:53 01:20:10 21° 291° (WNW) 01:23:20 437.405
Oscar 19 05 May 01:24:04 01:26:28 14° 89° (E) 01:29:10 437.125/150
Cosmos 2504 05 May 01:30:46 01:37:21 32° 274° (W) 01:43:30 435.465 / 435.565
BEESAT 3 05 May 01:39:17 01:42:27 21° 312° (NW) 01:45:34 437.485
DUCHIFAT 1 05 May 01:40:34 01:42:27 12° 294° (WNW) 01:44:05 145.980
SRMSAT 05 May 01:43:51 01:46:20 13° 185° (S) 01:48:45 437.500
SPROUT 05 May 01:45:08 01:47:54 16° 268° (W) 01:50:31 437.525
BEESAT 2 05 May 01:54:47 01:57:44 18° 313° (NW) 02:00:36 435.950
TISAT 1 05 May 02:12:05 02:12:46 10° 271° (W) 02:13:08 437.305
CUSAT 1 05 May 02:12:35 02:19:10 27° 66° (ENE) 02:25:55 437.405
GONETS M04 05 May 02:14:55 02:22:29 32° 70° (ENE) 02:30:12
Gurwin Techsat 1B 05 May 02:15:20 02:16:14 11° 87° (E) 02:17:32 435.225
DANDE 05 May 02:18:55 02:25:17 25° 66° (ENE) 02:32:04 436.750
AIST 2 05 May 02:21:47 02:25:33 29° 309° (NW) 02:29:18 435.215
ITAMSAT 1 05 May 02:21:53 02:24:31 14° 90° (E) 02:27:27 435.822/435.867
ITUPSAT 1 05 May 02:23:59 02:28:42 58° 259° (W) 02:33:25 437.325
BEESAT 05 May 02:48:31 02:52:47 31° 264° (W) 02:57:00 436.000
SWISSCUBE 05 May 02:53:10 02:57:12 26° 265° (W) 03:01:08 437.505
Oscar 19 05 May 03:01:12 03:06:22 64° 285° (WNW) 03:11:28 437.125/150
KKS-1 05 May 03:05:37 03:10:02 71° 76° (ENE) 03:14:29 437.445
Cosmos 2499 05 May 03:28:19 03:30:28 12° 59° (ENE) 03:33:09 435.465 / 435.565
STARS 05 May 03:34:25 03:38:49 88° 261° (W) 03:43:16 437.465
HORYU 2 05 May 03:47:29 03:50:01 15° 91° (E) 03:52:44 437.375
Gurwin Techsat 1B 05 May 03:51:37 03:56:58 81° 286° (WNW) 04:02:17 435.225
CUSAT 1 05 May 03:54:20 04:02:36 69° 265° (W) 04:10:28 437.405
ITAMSAT 1 05 May 03:59:24 04:04:31 61° 287° (WNW) 04:09:37 435.822/435.867
DANDE 05 May 04:00:57 04:09:22 76° 264° (W) 04:17:44 436.750
GONETS M04 05 May 04:11:14 04:19:45 53° 269° (W) 04:28:06
AO-7 05 May 04:27:43 04:35:07 36° 97° (E) 04:42:41 29.400- 29.500
MOZHAYETS 4 05 May 04:49:02 04:53:35 61° 76° (ENE) 04:58:10
JAS-2 05 May 04:56:46 05:02:27 59° 99° (E) 05:07:39 435.910
PCSat 05 May 05:03:10 05:05:04 12° 104° (ESE) 05:07:19 145.827
Cosmos 2499 05 May 05:17:47 05:25:16 80° 82° (E) 05:32:21 435.465 / 435.565
HORYU 2 05 May 05:22:40 05:26:56 44° 288° (WNW) 05:31:09 437.375
CUBESAT XI-V 05 May 05:23:11 05:23:21 10° 64° (ENE) 05:23:48 437.345
CUSAT 1 05 May 05:40:54 05:44:09 12° 280° (W) 05:46:41 437.405
O/OREOS (USA 219) 05 May 05:44:54 05:47:56 18° 57° (ENE) 05:51:06 437.305
DANDE 05 May 05:47:08 05:51:39 15° 278° (W) 05:55:32 436.750
M-CUBED/EXP-1 PRIME 05 May 06:04:02 06:08:20 34° 67° (ENE) 06:12:34 437.505
PRISM 05 May 06:06:44 06:09:13 16° 68° (ENE) 06:11:51 437.425
AO-7 05 May 06:20:12 06:28:08 49° 294° (WNW) 06:35:58 29.400- 29.500
STRAND 1 05 May 06:28:30 06:32:40 27° 68° (ENE) 06:36:56 437.568
CUTE-I 05 May 06:29:33 06:33:22 20° 92° (E) 06:37:22 437.470
MOZHAYETS 4 05 May 06:29:34 06:31:18 12° 271° (W) 06:32:45
AUBIESAT-1 05 May 06:35:38 06:40:22 64° 70° (ENE) 06:44:59 437.475
Cubesat XI-IV 05 May 06:42:02 06:46:29 27° 95° (E) 06:51:02 437.490
PCSat 05 May 06:42:29 06:47:54 78° 297° (WNW) 06:53:22 145.827
JAS-2 05 May 06:43:21 06:47:00 17° 298° (WNW) 06:50:15 435.910
CUBESAT XI-V 05 May 06:55:38 07:00:15 77° 259° (W) 07:04:52 437.345
Cosmos 2499 05 May 07:13:32 07:17:28 15° 279° (W) 07:20:52 435.465 / 435.565
O/OREOS (USA 219) 05 May 07:23:23 07:27:35 39° 254° (WSW) 07:31:43 437.305
M-CUBED/EXP-1 PRIME 05 May 07:39:09 07:43:10 25° 261° (W) 07:47:01 437.505
ISS 05 May 07:40:32 07:43:15 25° 133° (SE) 07:46:00 145.825
PRISM 05 May 07:40:33 07:44:25 37° 262° (W) 07:48:16 437.425
Cosmos 2491 05 May 07:54:47 08:00:41 20° 64° (ENE) 08:07:01 435.465 / 435.565
STRAND 1 05 May 08:07:11 08:11:46 33° 263° (W) 08:16:19 437.568
CUTE-I 05 May 08:08:38 08:13:43 45° 288° (WNW) 08:18:45 437.470
HO-68 05 May 08:13:07 08:13:33 10° 85° (E) 08:14:40 435.675
AUBIESAT-1 05 May 08:13:12 08:15:30 13° 265° (W) 08:17:30 437.475
Cubesat XI-IV 05 May 08:21:51 08:26:38 34° 290° (WNW) 08:31:22 437.490
BEESAT 3 05 May 08:21:59 08:24:14 15° 45° (NE) 08:26:37 437.485
PCSat 05 May 08:29:58 08:32:20 12° 318° (NW) 08:34:28 145.827
BEESAT 2 05 May 08:37:16 08:39:58 17° 46° (NE) 08:42:44 435.950
CANX-2 05 May 08:44:47 08:46:42 13° 90° (E) 08:48:51 2200.000
SO-50 05 May 08:47:39 08:51:45 33° 113° (ESE) 08:56:02 436.795
CUTE 1.7 + AOD 2 05 May 08:51:57 08:54:11 14° 91° (E) 08:56:37 437.475
YUBILEINY 05 May 08:55:00 09:00:51 21° 82° (E) 09:07:09 435.215
AIST 2 05 May 09:08:01 09:09:42 12° 42° (NE) 09:11:33 435.215
COMPASS 1 05 May 09:10:15 09:12:38 15° 91° (E) 09:15:10 437.405
BRITE-PL 05 May 09:13:03 09:18:33 71° 101° (E) 09:24:14 437.365/2234.400
ISS 05 May 09:16:37 09:19:31 30° 328° (NNW) 09:22:27 145.825
DOVE 4 05 May 09:27:25 09:32:26 42° 97° (E) 09:37:28 437.250
UNISAT 6 05 May 09:33:58 09:34:31 10° 64° (ENE) 09:35:22 437.425
AAUSAT CUBESAT 2 05 May 09:42:31 09:46:14 31° 96° (E) 09:49:56 437.432
GOMX 1 05 May 09:43:07 09:48:35 88° 102° (ESE) 09:54:06 467.674
Cosmos 2491 05 May 09:49:53 09:58:45 81° 266° (W) 10:07:34 435.465 / 435.565
SEEDS 05 May 09:51:40 09:55:51 61° 100° (E) 10:00:00 437.485
HO-68 05 May 09:55:26 10:02:38 75° 104° (ESE) 10:09:47 435.675
BEESAT 3 05 May 09:58:38 10:02:38 55° 243° (WSW) 10:06:33 437.485
ANTELSAT 05 May 10:12:48 10:16:40 27° 70° (ENE) 10:20:42 437.575/2403.000
BEESAT 2 05 May 10:14:24 10:18:21 45° 244° (WSW) 10:22:11 435.950
QB50P2 05 May 10:15:11 10:16:53 13° 66° (ENE) 10:18:49 145.880/145.840
CANX-2 05 May 10:18:52 10:22:57 45° 286° (WNW) 10:26:59 2200.000
UKube-1 05 May 10:24:28 10:25:30 11° 90° (E) 10:26:50 .
NANOSAT C BR1 05 May 10:24:39 10:27:04 16° 67° (ENE) 10:29:40 145.865
CUTE 1.7 + AOD 2 05 May 10:26:21 10:30:22 41° 287° (WNW) 10:34:20 437.475
SO-50 05 May 10:28:15 10:32:20 28° 311° (NW) 10:36:27 436.795
CINEMA 3 05 May 10:28:40 10:33:45 88° 102° (ESE) 10:38:43 145.822/145.860
POPSAT HIP 1 05 May 10:32:26 10:35:22 19° 69° (ENE) 10:38:27 437.405
FUNcube-1 05 May 10:34:50 10:38:53 31° 96° (E) 10:42:53 145.935
Oscar 11 05 May 10:38:09 10:42:28 64° 101° (E) 10:46:44 145.826/435.025
AIST 1 05 May 10:42:13 10:46:14 39° 78° (ENE) 10:50:18
COMPASS 1 05 May 10:44:38 10:48:32 38° 287° (WNW) 10:52:21 437.405
AIST 2 05 May 10:44:39 10:48:53 76° 241° (WSW) 10:53:01 435.215
YUBILEINY 05 May 10:48:04 10:56:54 74° 279° (W) 11:05:43 435.215
CUBEBUG 2 05 May 10:51:23 10:56:10 80° 102° (ESE) 11:00:50 437.445
BRITE-PL 05 May 10:53:17 10:56:35 16° 294° (WNW) 10:59:41 437.365/2234.400
DUCHIFAT 1 05 May 10:53:37 10:57:20 32° 71° (ENE) 11:01:08 145.980
UWE-3 05 May 10:54:21 10:59:02 69° 101° (E) 11:03:34 435.000/436.395/437.385
TIGRISAT 05 May 10:56:43 11:01:19 79° 76° (ENE) 11:06:01 435.000
ZACube-1 05 May 11:04:28 11:09:03 71° 101° (E) 11:13:31 437.345
DOVE 4 05 May 11:05:45 11:09:56 23° 292° (WNW) 11:14:00 437.250
POLYITAN 1 05 May 11:06:03 11:10:06 47° 74° (ENE) 11:14:14 437.675
UNISAT 6 05 May 11:06:04 11:10:41 80° 259° (WSW) 11:15:24 437.425
HUMSAT D 05 May 11:06:57 11:10:50 33° 96° (E) 11:14:41 437.325/437.525
50 SAT 05 May 11:14:58 11:18:05 22° 94° (E) 11:21:16 437.505
DELFI C3 05 May 11:16:53 11:20:50 56° 285° (WNW) 11:24:46 145.870
QB50P1 05 May 11:17:59 11:22:10 64° 75° (ENE) 11:26:24 145.935-145.965
AAUSAT CUBESAT 2 05 May 11:18:40 11:21:40 19° 291° (WNW) 11:24:31 437.432
CUBEBUG 1 05 May 11:20:30 11:21:51 11° 89° (E) 11:23:28 437.445
GOMX 1 05 May 11:23:53 11:26:03 12° 296° (WNW) 11:27:56 467.674
SEEDS 05 May 11:30:07 11:31:11 11° 294° (WNW) 11:32:01 437.485
DX 1 05 May 11:30:25 11:34:49 73° 102° (ESE) 11:39:11 434.975-435.025
BUGSAT 1 05 May 11:32:27 11:36:24 63° 75° (ENE) 11:40:26 437.445
HO-68 05 May 11:44:37 11:49:43 21° 300° (WNW) 11:54:31 435.675
VELOX 1 05 May 11:44:59 11:49:18 47° 99° (E) 11:53:38 145.980
QB50P2 05 May 11:48:14 11:52:23 53° 260° (W) 11:56:34 145.880/145.840
ESTCUBE 1 05 May 11:48:34 11:52:27 29° 96° (E) 11:56:23 437.505/2401.250
ANTELSAT 05 May 11:49:26 11:53:24 27° 265° (W) 11:57:23 437.575/2403.000
Cosmos 2491 05 May 11:50:15 11:54:25 14° 281° (WNW) 11:57:53 435.465 / 435.565
UKube-1 05 May 11:57:48 12:02:04 57° 286° (WNW) 12:06:20 .
NANOSAT C BR1 05 May 11:58:37 12:02:36 41° 262° (W) 12:06:38 145.865
RS-15 05 May 12:02:23 12:11:37 35° 107° (ESE) 12:21:17 29.354- 29.394
AISAT 05 May 12:07:10 12:11:41 90° 102° (ESE) 12:16:10 437.250
POPSAT HIP 1 05 May 12:07:14 12:11:03 32° 263° (W) 12:14:53 437.405
CINEMA 3 05 May 12:09:05 12:10:16 11° 297° (WNW) 12:11:08 145.822/145.860
FUNcube-1 05 May 12:11:27 12:15:03 23° 291° (WNW) 12:18:29 145.935
Cosmos 2504 05 May 12:11:36 12:19:36 41° 89° (E) 12:27:31 435.465 / 435.565
Oscar 11 05 May 12:17:00 12:18:10 11° 295° (WNW) 12:19:05 145.826/435.025
AIST 1 05 May 12:21:08 12:23:35 14° 272° (W) 12:25:51
TISAT 1 05 May 12:21:41 12:22:20 10° 89° (E) 12:23:18 437.305
VERMONT LUNAR 05 May 12:27:29 12:30:41 51° 156° (SSE) 12:33:56 437.305
DUCHIFAT 1 05 May 12:30:12 12:33:15 19° 267° (W) 12:36:12 145.980
CUBEBUG 2 05 May 12:31:11 12:32:13 10° 296° (WNW) 12:32:58 437.445
UWE-3 05 May 12:33:16 12:35:00 12° 295° (WNW) 12:36:27 435.000/436.395/437.385
Oscar 19 05 May 12:38:58 12:42:16 18° 65° (ENE) 12:45:45 437.125/150
HUMSAT D 05 May 12:43:15 12:46:23 19° 291° (WNW) 12:49:22 437.325/437.525
ZACube-1 05 May 12:43:30 12:44:51 11° 296° (WNW) 12:45:55 437.345
POLYITAN 1 05 May 12:44:16 12:46:21 13° 270° (W) 12:48:13 437.675
50 SAT 05 May 12:49:34 12:52:50 24° 290° (WNW) 12:55:58 437.505
YUBILEINY 05 May 12:51:30 12:55:39 13° 302° (WNW) 12:59:06 435.215
CUBEBUG 1 05 May 12:54:19 12:58:39 56° 285° (WNW) 13:02:57 437.445
PHONESAT 2.4 05 May 13:11:51 13:15:08 38° 153° (SSE) 13:18:29 2401.200-2431.200
VELOX 1 05 May 13:22:52 13:25:30 15° 294° (WNW) 13:27:59 145.980
ESTCUBE 1 05 May 13:25:35 13:29:13 24° 291° (WNW) 13:32:45 437.505/2401.250
SPROUT 05 May 13:31:43 13:36:05 82° 283° (WNW) 13:40:25 437.525
Gurwin Techsat 1B 05 May 13:33:37 13:36:39 16° 64° (ENE) 13:39:54 435.225
ITAMSAT 1 05 May 13:37:57 13:41:29 20° 66° (ENE) 13:45:13 435.822/435.867
TISAT 1 05 May 13:54:22 13:58:35 58° 285° (WNW) 14:02:45 437.305
Cosmos 2504 05 May 14:04:45 14:13:04 42° 286° (WNW) 14:20:59 435.465 / 435.565
VERMONT LUNAR 05 May 14:04:50 14:08:06 55° 352° (N) 14:11:24 437.305
ISS 05 May 14:09:15 14:11:45 20° 27° (NNE) 14:14:16 145.825
RS-15 05 May 14:12:43 14:23:29 61° 308° (NW) 14:34:28 29.354- 29.394
Oscar 19 05 May 14:16:11 14:21:14 53° 260° (W) 14:26:19 437.125/150
ITUPSAT 1 05 May 14:26:32 14:31:02 41° 98° (E) 14:35:32 437.325
HORYU 2 05 May 14:45:09 14:46:56 13° 65° (ENE) 14:48:57 437.375
PHONESAT 2.4 05 May 14:49:45 14:53:16 65° 349° (NNW) 14:56:49 2401.200-2431.200
BEESAT 05 May 14:49:56 14:54:42 77° 102° (ESE) 14:59:28 436.000
SWISSCUBE 05 May 14:54:22 14:59:09 88° 280° (W) 15:03:54 437.505
KKS-1 05 May 14:59:55 15:02:37 16° 92° (E) 15:05:30 437.445
JAS-2 05 May 15:05:49 15:11:53 27° 66° (ENE) 15:17:48 435.910
Gurwin Techsat 1B 05 May 15:10:55 15:16:09 62° 259° (W) 15:21:27 435.225
GONETS M04 05 May 15:13:32 15:21:19 39° 88° (E) 15:29:20
ITAMSAT 1 05 May 15:15:42 15:20:41 47° 261° (W) 15:25:41 435.822/435.867
CUSAT 1 05 May 15:19:40 15:22:40 17° 82° (E) 15:26:25 437.405
AO-7 05 May 15:24:43 15:32:15 42° 64° (ENE) 15:39:55 29.400- 29.500
STARS 05 May 15:26:57 15:30:09 20° 93° (E) 15:33:29 437.465
DANDE 05 May 15:31:06 15:33:27 15° 81° (E) 15:36:24 436.750
PCSat 05 May 15:32:19 15:37:38 56° 59° (ENE) 15:42:58 145.827
VERMONT LUNAR 05 May 15:42:26 15:45:45 58° 10° (N) 15:49:04 437.305
ISS 05 May 15:45:07 15:48:16 48° 224° (SW) 15:51:24 145.825
Cosmos 2499 05 May 16:04:34 16:06:35 11° 79° (E) 16:09:21 435.465 / 435.565
ITUPSAT 1 05 May 16:05:14 16:08:40 19° 293° (WNW) 16:11:56 437.325
HORYU 2 05 May 16:18:40 16:23:07 61° 259° (W) 16:27:35 437.375
PHONESAT 2.4 05 May 16:28:12 16:31:43 55° 6° (N) 16:35:14 2401.200-2431.200
BEESAT 05 May 16:30:35 16:32:00 11° 297° (WNW) 16:33:07 436.000
RS-15 05 May 16:31:06 16:39:00 21° 337° (NNW) 16:46:48 29.354- 29.394
KKS-1 05 May 16:35:14 16:39:30 42° 287° (WNW) 16:43:43 437.445
MOZHAYETS 4 05 May 16:47:20 16:50:08 17° 91° (E) 16:53:08
JAS-2 05 May 16:48:52 16:56:34 60° 260° (W) 17:03:45 435.910
CUSAT 1 05 May 17:00:11 17:04:37 46° 287° (WNW) 17:10:29 437.405
STARS 05 May 17:02:40 17:06:43 34° 289° (WNW) 17:10:42 437.465
GONETS M04 05 May 17:09:49 17:18:07 43° 286° (WNW) 17:26:22
DANDE 05 May 17:11:43 17:15:49 46° 286° (WNW) 17:21:21 436.750
PCSat 05 May 17:17:00 17:20:40 18° 254° (WSW) 17:24:06 145.827
AO-7 05 May 17:17:20 17:25:05 41° 262° (W) 17:32:44 29.400- 29.500
VERMONT LUNAR 05 May 17:19:54 17:23:08 46° 205° (SSW) 17:26:22 437.305
SO-50 05 May 17:20:54 17:24:43 22° 46° (NE) 17:28:35 436.795
CUTE-I 05 May 17:49:32 17:53:59 29° 68° (ENE) 17:58:31 437.470
Cosmos 2499 05 May 17:49:55 17:58:40 71° 94° (E) 18:07:01 435.465 / 435.565
Cubesat XI-IV 05 May 18:02:12 18:07:02 38° 70° (ENE) 18:11:57 437.490
PHONESAT 2.4 05 May 18:06:28 18:10:00 63° 203° (SSW) 18:13:33 2401.200-2431.200
MOZHAYETS 4 05 May 18:23:18 18:27:37 42° 287° (WNW) 18:31:53
